Gustavus, AK

9:15 AM AKDT on April 24, 2018 (GMT -0800)
Gustavus

Weather History for PAGS - January, 2015

Change the Weather History Date:

Wednesday, January 28, 2015

  Actual Average Record
Temperature  
Mean Temperature 30 °F -  
Max Temperature 33 °F 32 °F 45 °F (1985)
Min Temperature 28 °F 21 °F -15 °F (1966)
Degree Days  
Heating Degree Days 34    
Moisture  
Dew Point 28 °F    
Average Humidity 88    
Maximum Humidity 93    
Minimum Humidity 86    
Precipitation  
Precipitation 0.00 in - - ()
Sea Level Pressure  
Sea Level Pressure 30.03 in    
Wind  
Wind Speed 5 mph (NNW)    
Max Wind Speed 10 mph    
Max Gust Speed -    
Visibility 4 miles    
Events      
Averages and records for this station are not official NWS values.
T = Trace of Precipitation, MM = Missing Value Source: NWS Daily Summary

Daily Weather History Graph

Daily Weather History Graph

Search for Another Location

Airport or City:

Astronomy

Jan. 28, 2015 Rise Set
Actual Time 8:16 AM AKST 4:15 PM AKST
Civil Twilight 7:31 AM AKST 5:01 PM AKST
Nautical Twilight 6:42 AM AKST 5:50 PM AKST
Astronomical Twilight 5:55 AM AKST 6:36 PM AKST
Moon 11:28 AM AKST (1/28) 2:50 AM AKST (1/28)
Length of Visible Light 9h 29m
Length of Day
7h 58m
Waxing Gibbous, 68% of the Moon is Illuminated
Jan 28
Waxing Gibbous
Feb 3
Full
Feb 11
Last Quarter
Feb 18
New
Feb 25
First Quarter

Hourly Weather History & Observations

Time (AKST) Temp. Windchill Dew Point Humidity Pressure Visibility Wind Dir Wind Speed Gust Speed Precip Events Conditions
12:16 AM 28.4 °F 21.2 °F 24.8 °F 86% 30.16 in 10.0 mi North 6.9 mph - N/A   Overcast
12:36 AM 28.4 °F 19.7 °F 24.8 °F 86% 30.16 in 10.0 mi NNW 9.2 mph - N/A   Overcast
12:56 AM 28.4 °F 20.4 °F 24.8 °F 86% 30.16 in 10.0 mi NNW 8.1 mph - N/A   Overcast
1:16 AM 28.4 °F 20.4 °F 24.8 °F 86% 30.16 in 10.0 mi NNW 8.1 mph - N/A   Overcast
1:36 AM 28.4 °F 20.4 °F 24.8 °F 86% 30.16 in 10.0 mi NNW 8.1 mph - N/A   Overcast
1:56 AM 28.4 °F 20.4 °F 24.8 °F 86% 30.16 in 10.0 mi NNW 8.1 mph - N/A   Overcast
2:16 AM 28.4 °F 22.2 °F 24.8 °F 86% 30.16 in 10.0 mi North 5.8 mph - N/A   Overcast
2:36 AM 28.4 °F 21.2 °F 24.8 °F 86% 30.17 in 10.0 mi North 6.9 mph - N/A   Overcast
2:56 AM 28.4 °F 22.2 °F 24.8 °F 86% 30.16 in 10.0 mi North 5.8 mph - N/A   Overcast
3:16 AM 28.4 °F 20.4 °F 24.8 °F 86% 30.15 in 10.0 mi NNW 8.1 mph - N/A   Overcast
3:36 AM 28.4 °F 19.7 °F 24.8 °F 86% 30.14 in 7.0 mi NNW 9.2 mph - N/A   Overcast
3:56 AM 28.4 °F 20.4 °F 24.8 °F 86% 30.14 in 7.0 mi NNW 8.1 mph - N/A   Overcast
4:16 AM 28.4 °F 23.3 °F 26.6 °F 93% 30.14 in 2.5 mi NNW 4.6 mph - N/A   Overcast
4:36 AM 28.4 °F 21.2 °F 26.6 °F 93% 30.14 in 2.0 mi NNW 6.9 mph - N/A   Overcast
4:56 AM 28.4 °F 22.2 °F 26.6 °F 93% 30.14 in 2.5 mi North 5.8 mph - N/A   Overcast
5:16 AM 28.4 °F 21.2 °F 26.6 °F 93% 30.13 in 2.0 mi NNW 6.9 mph - N/A   Overcast
5:36 AM 28.4 °F 21.2 °F 26.6 °F 93% 30.13 in 2.5 mi NNW 6.9 mph - N/A   Overcast
5:56 AM 30.2 °F 21.9 °F 26.6 °F 86% 30.12 in 2.0 mi NNW 9.2 mph - N/A   Overcast
6:16 AM 28.4 °F 19.7 °F 26.6 °F 93% 30.11 in 2.0 mi NNW 9.2 mph - N/A   Overcast
6:36 AM 28.4 °F 19.1 °F 26.6 °F 93% 30.10 in 2.5 mi NNW 10.4 mph - N/A   Overcast
6:56 AM 30.2 °F 24.3 °F 26.6 °F 86% 30.10 in 4.0 mi NW 5.8 mph - N/A   Overcast
7:36 AM 30.2 °F 26.7 °F 26.6 °F 86% 30.10 in 8.0 mi NNW 3.5 mph - N/A   Overcast
7:56 AM 30.2 °F 25.4 °F 26.6 °F 86% 30.10 in 6.0 mi NNW 4.6 mph - N/A   Overcast
8:16 AM 30.2 °F 25.4 °F 26.6 °F 86% 30.09 in 1.8 mi NNW 4.6 mph - N/A   Overcast
8:36 AM 30.2 °F 26.7 °F 26.6 °F 86% 30.09 in 3.0 mi North 3.5 mph - N/A   Overcast
8:56 AM 30.2 °F - 26.6 °F 86% 30.08 in 1.5 mi Calm Calm - N/A   Overcast
9:16 AM 30.2 °F 25.4 °F 26.6 °F 86% 30.08 in 2.0 mi North 4.6 mph - N/A   Overcast
9:36 AM 30.2 °F 26.7 °F 28.4 °F 93% 30.08 in 4.0 mi North 3.5 mph - N/A   Overcast
9:56 AM 30.2 °F - 28.4 °F 93% 30.08 in 1.5 mi Calm Calm - N/A   Overcast
10:16 AM 30.2 °F - 28.4 °F 93% 30.08 in 2.5 mi Calm Calm - N/A   Overcast
10:36 AM 30.2 °F 26.7 °F 28.4 °F 93% 30.07 in 1.2 mi North 3.5 mph - N/A   Overcast
10:56 AM 30.2 °F 24.3 °F 28.4 °F 93% 30.07 in 3.0 mi NNW 5.8 mph - N/A   Overcast
11:16 AM 32.0 °F 26.4 °F 28.4 °F 87% 30.06 in 5.0 mi NNW 5.8 mph - N/A   Overcast
11:36 AM 32.0 °F 28.7 °F 28.4 °F 87% 30.05 in 5.0 mi North 3.5 mph - N/A   Overcast
11:56 AM 32.0 °F 27.5 °F 28.4 °F 87% 30.04 in 10.0 mi North 4.6 mph - N/A   Overcast
12:16 PM 32.0 °F 27.5 °F 28.4 °F 87% 30.04 in 2.0 mi North 4.6 mph - N/A   Overcast
12:36 PM 32.0 °F 26.4 °F 28.4 °F 87% 30.02 in 3.0 mi North 5.8 mph - N/A   Overcast
12:56 PM 32.0 °F 28.7 °F 28.4 °F 87% 30.01 in 9.0 mi North 3.5 mph - N/A   Mostly Cloudy
1:16 PM 32.0 °F - 28.4 °F 87% 30.00 in 1.5 mi Calm Calm - N/A   Overcast
1:36 PM 32.0 °F - 30.2 °F 93% 29.99 in 1.0 mi Calm Calm - N/A   Overcast
1:56 PM 32.0 °F - 28.4 °F 87% 29.99 in 1.0 mi Calm Calm - N/A   Overcast
2:16 PM 32.0 °F - 28.4 °F 87% 29.98 in 1.0 mi Calm Calm - N/A   Overcast
2:36 PM 32.0 °F - 28.4 °F 87% 29.97 in 0.8 mi Calm Calm - N/A   Overcast
2:56 PM 32.0 °F - 28.4 °F 87% 29.96 in 0.8 mi Calm Calm - N/A   Overcast
3:16 PM 32.0 °F - 28.4 °F 87% 29.95 in 1.0 mi Calm Calm - N/A   Overcast
3:36 PM 32.0 °F - 28.4 °F 87% 29.94 in 0.8 mi Calm Calm - N/A   Overcast
3:56 PM 32.0 °F - 28.4 °F 87% 29.94 in 0.8 mi Calm Calm - N/A   Overcast
4:16 PM 32.0 °F - 28.4 °F 87% 29.93 in 1.2 mi Calm Calm - N/A   Overcast
4:36 PM 32.0 °F - 28.4 °F 87% 29.93 in 1.8 mi Calm Calm - N/A   Overcast
4:56 PM 32.0 °F - 30.2 °F 93% 29.92 in 2.5 mi Calm Calm - N/A   Overcast
5:16 PM 32.0 °F - 28.4 °F 87% 29.92 in 2.5 mi Calm Calm - N/A   Overcast
5:36 PM 32.0 °F - 30.2 °F 93% 29.91 in 2.5 mi Calm Calm - N/A   Overcast
5:56 PM 32.0 °F - 30.2 °F 93% 29.91 in 3.0 mi Calm Calm - N/A   Overcast
6:16 PM 32.0 °F - 30.2 °F 93% 29.91 in 2.5 mi Calm Calm - N/A   Overcast
6:36 PM 32.0 °F - 30.2 °F 93% 29.90 in 2.5 mi Calm Calm - N/A   Overcast
6:56 PM 32.0 °F - 30.2 °F 93% 29.90 in 2.5 mi Calm Calm - N/A   Overcast
7:16 PM 33.8 °F - 30.2 °F 87% 29.90 in 3.0 mi Calm Calm - N/A   Overcast
7:36 PM 33.8 °F - 30.2 °F 87% 29.90 in 3.0 mi Calm Calm - N/A   Overcast
7:56 PM 33.8 °F - 30.2 °F 87% 29.90 in 4.0 mi Calm Calm - N/A   Overcast
8:16 PM 33.8 °F - 30.2 °F 87% 29.90 in 4.0 mi Calm Calm - N/A   Overcast
8:36 PM 33.8 °F - 30.2 °F 87% 29.90 in 5.0 mi Calm Calm - N/A   Overcast
8:56 PM 33.8 °F - 30.2 °F 87% 29.90 in 4.0 mi Calm Calm - N/A   Overcast
9:16 PM 33.8 °F - 30.2 °F 87% 29.90 in 5.0 mi Calm Calm - N/A   Mostly Cloudy
9:36 PM 33.8 °F - 30.2 °F 87% 29.91 in 4.0 mi Calm Calm - N/A   Overcast
9:56 PM 33.8 °F - 30.2 °F 87% 29.92 in 5.0 mi Calm Calm - N/A   Overcast
10:16 PM 33.8 °F - 30.2 °F 87% 29.92 in 4.0 mi Calm Calm - N/A   Overcast
10:36 PM 33.8 °F - 30.2 °F 87% 29.93 in 4.0 mi Calm Calm - N/A   Overcast
10:56 PM 33.8 °F 30.8 °F 30.2 °F 87% 29.92 in 5.0 mi NNW 3.5 mph - N/A   Overcast
11:16 PM 33.8 °F 29.6 °F 30.2 °F 87% 29.94 in 7.0 mi WNW 4.6 mph - N/A   Overcast
11:36 PM 33.8 °F 29.6 °F 30.2 °F 87% 29.95 in 9.0 mi NNW 4.6 mph - N/A   Overcast
11:56 PM 33.8 °F 27.0 °F 30.2 °F 87% 29.95 in 8.0 mi NNW 8.1 mph - N/A   Overcast